• In United Kingdom
  • List of Countries
  • For 7 days
  • Water Temperature
  • Satellite Maps
  • Weather Map
  • Weather Widgets
  • user-avatar
    Login

    Hourly Weather Shaki

    Today, 20 September, Wednesday

    Time Temperature Precipitation Wind Pressure Humidity
    00:00 +24°C° 0 mm 2 mps 736 mmHg 39%
    01:00 +24°C° 0 mm 2 mps 736 mmHg 39%
    02:00 +23°C° 0 mm 1 mps 736 mmHg 40%
    03:00 +23°C° 0 mm 1 mps 736 mmHg 41%
    04:00 +23°C° 0 mm 1 mps 736 mmHg 40%
    05:00 +23°C° 0 mm 1 mps 736 mmHg 40%
    06:00 +23°C° 0 mm 1 mps 736 mmHg 39%
    07:00 +25°C° 0 mm 1 mps 736 mmHg 36%
    08:00 +27°C° 0 mm 2 mps 736 mmHg 33%
    09:00 +29°C° 0 mm 2 mps 736 mmHg 30%
    10:00 +30°C° 0 mm 2 mps 736 mmHg 28%
    11:00 +31°C° 0 mm 2 mps 736 mmHg 26%
    12:00 +32°C° 0 mm 1 mps 735 mmHg 24%
    13:00 +33°C° 0 mm 1 mps 735 mmHg 24%
    14:00 +33°C° 0 mm 1 mps 735 mmHg 23%
    15:00 +33°C° 0 mm 1 mps 735 mmHg 23%
    16:00 +31°C° 0 mm 1 mps 735 mmHg 26%
    17:00 +30°C° 0 mm 1 mps 735 mmHg 30%
    18:00 +28°C° 0 mm 1 mps 735 mmHg 33%
    19:00 +27°C° 0 mm 1 mps 735 mmHg 34%
    20:00 +27°C° 0 mm 2 mps 735 mmHg 35%
    21:00 +26°C° 0 mm 2 mps 735 mmHg 36%
    22:00 +26°C° 0 mm 2 mps 735 mmHg 37%
    23:00 +25°C° 0 mm 2 mps 735 mmHg 38%

    Tomorrow, 21 September, Thursday

    Time Temperature Precipitation Wind Pressure Humidity
    00:00 +25°C° 0 mm 2 mps 735 mmHg 39%
    01:00 +24°C° 0 mm 1 mps 735 mmHg 39%
    02:00 +24°C° 0 mm 1 mps 735 mmHg 40%
    03:00 +23°C° 0 mm 1 mps 735 mmHg 40%
    04:00 +23°C° 0 mm 1 mps 735 mmHg 40%
    05:00 +23°C° 0 mm 1 mps 735 mmHg 40%
    06:00 +23°C° 0 mm 1 mps 735 mmHg 40%
    07:00 +25°C° 0 mm 1 mps 735 mmHg 36%
    08:00 +28°C° 0 mm 1 mps 735 mmHg 31%
    09:00 +30°C° 0 mm 2 mps 735 mmHg 27%
    10:00 +31°C° 0 mm 2 mps 735 mmHg 25%
    11:00 +32°C° 0 mm 2 mps 735 mmHg 23%
    12:00 +34°C° 0 mm 2 mps 735 mmHg 22%
    13:00 +34°C° 0 mm 2 mps 734 mmHg 21%
    14:00 +35°C° 0 mm 2 mps 734 mmHg 21%
    15:00 +35°C° 0 mm 2 mps 734 mmHg 21%
    16:00 +32°C° 0 mm 2 mps 734 mmHg 24%
    17:00 +30°C° 0 mm 2 mps 734 mmHg 27%
    18:00 +28°C° 0 mm 2 mps 734 mmHg 31%
    19:00 +27°C° 0 mm 2 mps 734 mmHg 33%
    20:00 +27°C° 0 mm 2 mps 734 mmHg 35%
    21:00 +26°C° 0 mm 3 mps 735 mmHg 36%
    22:00 +25°C° 0 mm 3 mps 735 mmHg 38%
    23:00 +25°C° 0 mm 2 mps 735 mmHg 40%

    Day after tomorrow, 22 September, Friday

    Time Temperature Precipitation Wind Pressure Humidity
    00:00 +24°C° 0 mm 2 mps 735 mmHg 42%
    01:00 +24°C° 0 mm 2 mps 735 mmHg 42%
    02:00 +23°C° 0 mm 2 mps 735 mmHg 43%
    03:00 +23°C° 0 mm 1 mps 734 mmHg 44%
    04:00 +23°C° 0 mm 1 mps 734 mmHg 44%
    05:00 +23°C° 0 mm 1 mps 734 mmHg 43%
    06:00 +22°C° 0 mm 1 mps 734 mmHg 43%
    07:00 +25°C° 0 mm 1 mps 734 mmHg 37%
    08:00 +27°C° 0 mm 1 mps 734 mmHg 32%
    09:00 +29°C° 0 mm 1 mps 735 mmHg 26%
    10:00 +30°C° 0 mm 2 mps 734 mmHg 23%
    11:00 +31°C° 0 mm 2 mps 734 mmHg 21%
    12:00 +34°C° 0 mm 3 mps 733 mmHg 19%
    13:00 +34°C° 0 mm 3 mps 733 mmHg 19%
    14:00 +34°C° 0 mm 3 mps 733 mmHg 18%
    15:00 +34°C° 0 mm 3 mps 732 mmHg 18%
    16:00 +31°C° 0 mm 3 mps 733 mmHg 21%
    17:00 +29°C° 0 mm 2 mps 733 mmHg 24%
    18:00 +27°C° 0 mm 2 mps 733 mmHg 27%
    19:00 +27°C° 0 mm 2 mps 733 mmHg 28%
    20:00 +26°C° 0 mm 3 mps 734 mmHg 29%
    21:00 +25°C° 0 mm 3 mps 734 mmHg 30%
    22:00 +25°C° 0 mm 3 mps 734 mmHg 31%
    23:00 +24°C° 0 mm 2 mps 734 mmHg 32%

    23 September, Saturday

    Time Temperature Precipitation Wind Pressure Humidity
    00:00 +23°C° 0 mm 2 mps 734 mmHg 34%
    01:00 +23°C° 0 mm 2 mps 734 mmHg 34%
    02:00 +23°C° 0 mm 2 mps 734 mmHg 34%
    03:00 +23°C° 0 mm 1 mps 734 mmHg 34%
    04:00 +22°C° 0 mm 1 mps 734 mmHg 33%
    05:00 +22°C° 0 mm 1 mps 735 mmHg 33%
    06:00 +22°C° 0 mm 1 mps 735 mmHg 32%
    07:00 +24°C° 0 mm 2 mps 735 mmHg 29%
    08:00 +27°C° 0 mm 2 mps 735 mmHg 26%
    09:00 +29°C° 0 mm 2 mps 735 mmHg 22%
    10:00 +30°C° 0 mm 2 mps 735 mmHg 22%
    11:00 +31°C° 0 mm 2 mps 735 mmHg 21%
    12:00 +32°C° 0 mm 2 mps 735 mmHg 20%
    13:00 +32°C° 0 mm 2 mps 735 mmHg 20%
    14:00 +32°C° 0 mm 2 mps 735 mmHg 19%
    15:00 +34°C° 0 mm 2 mps 735 mmHg 19%
    16:00 +31°C° 0 mm 2 mps 735 mmHg 22%
    17:00 +29°C° 0 mm 2 mps 736 mmHg 25%
    18:00 +27°C° 0 mm 2 mps 736 mmHg 28%
    19:00 +26°C° 0 mm 2 mps 737 mmHg 29%
    20:00 +26°C° 0 mm 2 mps 737 mmHg 29%
    21:00 +25°C° 0 mm 2 mps 738 mmHg 30%
    22:00 +24°C° 0 mm 2 mps 738 mmHg 31%
    23:00 +24°C° 0 mm 2 mps 738 mmHg 32%

    24 September, Sunday

    Time Temperature Precipitation Wind Pressure Humidity
    00:00 +24°C° 0 mm 2 mps 738 mmHg 33%
    01:00 +23°C° 0 mm 2 mps 738 mmHg 32%
    02:00 +23°C° 0 mm 2 mps 738 mmHg 32%
    03:00 +23°C° 0 mm 1 mps 738 mmHg 31%
    04:00 +22°C° 0 mm 1 mps 738 mmHg 31%
    05:00 +22°C° 0 mm 1 mps 738 mmHg 30%
    06:00 +21°C° 0 mm 2 mps 738 mmHg 30%
    07:00 +24°C° 0 mm 1 mps 739 mmHg 26%
    08:00 +27°C° 0 mm 1 mps 739 mmHg 23%
    09:00 +29°C° 0 mm 1 mps 739 mmHg 19%
    10:00 +30°C° 0 mm 2 mps 739 mmHg 18%
    11:00 +31°C° 0 mm 3 mps 739 mmHg 17%
    12:00 +33°C° 0 mm 3 mps 738 mmHg 16%
    13:00 +33°C° 0 mm 3 mps 738 mmHg 16%
    14:00 +34°C° 0 mm 4 mps 738 mmHg 16%
    15:00 +34°C° 0 mm 4 mps 738 mmHg 16%
    16:00 +32°C° 0 mm 4 mps 738 mmHg 20%
    17:00 +29°C° 0 mm 3 mps 738 mmHg 23%
    18:00 +27°C° 0 mm 3 mps 738 mmHg 27%
    19:00 +26°C° 0 mm 3 mps 739 mmHg 29%
    20:00 +25°C° 0 mm 3 mps 739 mmHg 30%
    21:00 +24°C° 0 mm 3 mps 739 mmHg 32%
    22:00 +24°C° 0 mm 3 mps 739 mmHg 33%
    23:00 +22°C° 0 mm 3 mps 739 mmHg 35%

    25 September, Monday

    Time Temperature Precipitation Wind Pressure Humidity
    00:00 +21°C° 0 mm 2 mps 739 mmHg 37%
    01:00 +21°C° 0 mm 2 mps 739 mmHg 37%
    02:00 +21°C° 0 mm 2 mps 739 mmHg 36%
    03:00 +20°C° 0 mm 2 mps 739 mmHg 36%
    04:00 +20°C° 0 mm 2 mps 739 mmHg 36%
    05:00 +21°C° 0 mm 1 mps 739 mmHg 36%
    06:00 +21°C° 0 mm 1 mps 739 mmHg 36%
    07:00 +23°C° 0 mm 1 mps 739 mmHg 33%
    08:00 +25°C° 0 mm 1 mps 739 mmHg 29%
    09:00 +27°C° 0 mm 1 mps 739 mmHg 26%
    10:00 +28°C° 0 mm 2 mps 739 mmHg 25%
    11:00 +29°C° 0 mm 2 mps 739 mmHg 24%
    12:00 +30°C° 0 mm 3 mps 739 mmHg 24%
    13:00 +30°C° 0 mm 3 mps 739 mmHg 23%
    14:00 +31°C° 0 mm 3 mps 738 mmHg 23%
    15:00 +31°C° 0 mm 3 mps 738 mmHg 23%
    16:00 +29°C° 0 mm 3 mps 739 mmHg 26%
    17:00 +27°C° 0 mm 3 mps 739 mmHg 30%
    18:00 +25°C° 0 mm 2 mps 739 mmHg 33%
    19:00 +24°C° 0 mm 3 mps 740 mmHg 34%
    20:00 +24°C° 0 mm 3 mps 740 mmHg 35%
    21:00 +22°C° 0 mm 3 mps 740 mmHg 36%
    22:00 +21°C° 0 mm 3 mps 740 mmHg 37%
    23:00 +21°C° 0 mm 3 mps 740 mmHg 38%
    Show more